Weather History for Chandler, OK

Change the Weather History Date:

Thursday, December 13, 2012

  Actual Average (KCUH) Record (KCUH)
Temperature  
Mean Temperature 52 °F -  
Max Temperature 64 °F 50 °F 82 °F (1948)
Min Temperature 39 °F 28 °F 2 °F (1962)
Degree Days  
Heating Degree Days 14    
Growing Degree Days 2 (Base 50)    
Moisture  
Dew Point 28 °F    
Average Humidity 44    
Maximum Humidity 56    
Minimum Humidity 30    
Precipitation  
Precipitation 0.01 in - - ()
Sea Level Pressure  
Sea Level Pressure 30.16 in    
Wind  
Wind Speed 13 mph (South)    
Max Wind Speed 21 mph    
Max Gust Speed 28 mph    
Visibility 10 miles    
Events      
Averages and records for this station are not official NWS values.
T = Trace of Precipitation, MM = Missing Value Source: NWS Daily Summary

Daily Weather History Graph

Daily Weather History Graph

Search for Another Location

Airport:

Trip Planner

Search our weather history database for the weather conditions in past years. The results will help you decide how hot, cold, wet, or windy it might be!

Date:

Astronomy

Dec. 13, 2012 Rise Set
Actual Time 7:28 AM CST 5:14 PM CST
Civil Twilight 7:00 AM CST 5:43 PM CST
Nautical Twilight 6:28 AM CST 6:15 PM CST
Astronomical Twilight 5:57 AM CST 6:46 PM CST
Moon 7:39 AM CST (12/13) 5:57 PM CST (12/13)
Length of Visible Light 10h 42m
Length of Day
9h 45m
New Moon, 0% of the Moon is Illuminated
Dec 13
New Moon
Dec 19
First Quarter
Dec 28
Full
Jan 4
Last Quarter
Jan 11
New

Hourly Weather History & Observations

Time (CST) Temp. Windchill Dew Point Humidity Pressure Visibility Wind Dir Wind Speed Gust Speed Precip Events Conditions
12:15 AM 44.6 °F 38.4 °F 23.0 °F 43% 30.17 in 10.0 mi South 12.7 mph 19.6 mph N/A   Clear
12:35 AM 44.6 °F 38.1 °F 23.0 °F 43% 30.17 in 10.0 mi South 13.8 mph 21.9 mph N/A   Clear
12:55 AM 44.6 °F 38.4 °F 23.0 °F 43% 30.18 in 10.0 mi South 12.7 mph 18.4 mph N/A   Clear
1:15 AM 44.6 °F 38.8 °F 23.0 °F 43% 30.18 in 10.0 mi South 11.5 mph 23.0 mph N/A   Clear
1:35 AM 44.6 °F 38.1 °F 23.0 °F 43% 30.18 in 10.0 mi South 13.8 mph 18.4 mph N/A   Clear
1:55 AM 42.8 °F 37.0 °F 23.0 °F 46% 30.18 in 10.0 mi South 10.4 mph 17.3 mph N/A   Clear
2:15 AM 42.8 °F 35.8 °F 23.0 °F 46% 30.19 in 10.0 mi South 13.8 mph - N/A   Clear
2:35 AM 42.8 °F 36.6 °F 23.0 °F 46% 30.19 in 10.0 mi South 11.5 mph 17.3 mph N/A   Clear
2:55 AM 42.8 °F 37.0 °F 23.0 °F 46% 30.19 in 10.0 mi SSE 10.4 mph - N/A   Clear
3:15 AM 41.0 °F 34.3 °F 23.0 °F 49% 30.19 in 10.0 mi South 11.5 mph - N/A   Clear
3:35 AM 41.0 °F 34.3 °F 23.0 °F 49% 30.18 in 10.0 mi South 11.5 mph - N/A   Clear
3:55 AM 41.0 °F 34.3 °F 23.0 °F 49% 30.17 in 10.0 mi SSE 11.5 mph - N/A   Clear
4:15 AM 41.0 °F 34.3 °F 23.0 °F 49% 30.17 in 10.0 mi South 11.5 mph 17.3 mph N/A   Clear
4:35 AM 41.0 °F 33.9 °F 23.0 °F 49% 30.17 in 10.0 mi South 12.7 mph - N/A   Clear
4:55 AM 41.0 °F 33.1 °F 24.8 °F 53% 30.17 in 10.0 mi South 15.0 mph 18.4 mph N/A   Clear
5:15 AM 41.0 °F 34.3 °F 24.8 °F 53% 30.17 in 10.0 mi South 11.5 mph 16.1 mph N/A   Clear
5:35 AM 39.2 °F 33.0 °F 24.8 °F 56% 30.17 in 10.0 mi South 9.2 mph - N/A   Clear
5:55 AM 39.2 °F 33.0 °F 24.8 °F 56% 30.17 in 10.0 mi South 9.2 mph 16.1 mph N/A   Clear
6:15 AM 39.2 °F 33.6 °F 24.8 °F 56% 30.18 in 10.0 mi South 8.1 mph - N/A   Clear
6:35 AM 39.2 °F 32.0 °F 24.8 °F 56% 30.18 in 10.0 mi South 11.5 mph - N/A   Clear
6:55 AM 39.2 °F 32.0 °F 24.8 °F 56% 30.18 in 10.0 mi South 11.5 mph 17.3 mph N/A   Clear
7:15 AM 39.2 °F 32.0 °F 24.8 °F 56% 30.18 in 10.0 mi South 11.5 mph - N/A   Clear
7:35 AM 39.2 °F 32.5 °F 24.8 °F 56% 30.19 in 10.0 mi South 10.4 mph - N/A   Clear
7:55 AM 39.2 °F 32.0 °F 24.8 °F 56% 30.19 in 10.0 mi South 11.5 mph 17.3 mph N/A   Clear
8:15 AM 41.0 °F 34.3 °F 24.8 °F 53% 30.18 in 10.0 mi South 11.5 mph 17.3 mph N/A   Clear
8:35 AM 41.0 °F 33.5 °F 24.8 °F 53% 30.19 in 10.0 mi South 13.8 mph 19.6 mph N/A   Clear
8:55 AM 42.8 °F 35.4 °F 24.8 °F 49% 30.19 in 10.0 mi South 15.0 mph 23.0 mph N/A   Clear
9:15 AM 44.6 °F 37.8 °F 26.6 °F 49% 30.20 in 10.0 mi South 15.0 mph 20.7 mph N/A   Clear
9:35 AM 46.4 °F 40.1 °F 26.6 °F 46% 30.20 in 10.0 mi South 15.0 mph 23.0 mph N/A   Clear
9:55 AM 50.0 °F - 28.4 °F 43% 30.20 in 10.0 mi South 12.7 mph 18.4 mph N/A   Clear
10:15 AM 50.0 °F - 28.4 °F 43% 30.20 in 10.0 mi South 20.7 mph 27.6 mph N/A   Clear
10:35 AM 51.8 °F - 30.2 °F 44% 30.20 in 10.0 mi South 17.3 mph 23.0 mph N/A   Clear
10:55 AM 53.6 °F - 30.2 °F 41% 30.19 in 10.0 mi South 13.8 mph - N/A   Clear
11:15 AM 55.4 °F - 30.2 °F 38% 30.18 in 10.0 mi South 17.3 mph 23.0 mph N/A   Clear
11:35 AM 59.0 °F - 32.0 °F 36% 30.18 in 10.0 mi South 15.0 mph 24.2 mph 0.01 in   Unknown
11:55 AM 60.8 °F - 32.0 °F 34% 30.17 in 10.0 mi SSW 15.0 mph 21.9 mph 0.01 in   Clear
12:15 PM 60.8 °F - 32.0 °F 34% 30.16 in 10.0 mi SSW 13.8 mph - N/A   Clear
12:35 PM 62.6 °F - 32.0 °F 32% 30.15 in 10.0 mi SSW 18.4 mph - N/A   Clear
12:55 PM 62.6 °F - 32.0 °F 32% 30.14 in 10.0 mi SSW 15.0 mph 23.0 mph N/A   Clear
1:15 PM 62.6 °F - 32.0 °F 32% 30.13 in 10.0 mi South 16.1 mph 25.3 mph N/A   Clear
1:35 PM 64.4 °F - 32.0 °F 30% 30.13 in 10.0 mi South 16.1 mph 23.0 mph N/A   Clear
1:55 PM 64.4 °F - 33.8 °F 32% 30.12 in 10.0 mi South 16.1 mph 25.3 mph N/A   Clear
2:15 PM 64.4 °F - 33.8 °F 32% 30.12 in 10.0 mi SSW 15.0 mph 23.0 mph N/A   Clear
2:35 PM 64.4 °F - 33.8 °F 32% 30.11 in 10.0 mi SSW 16.1 mph 23.0 mph N/A   Clear
2:55 PM 64.4 °F - 33.8 °F 32% 30.11 in 10.0 mi SSW 13.8 mph 23.0 mph N/A   Clear
3:15 PM 64.4 °F - 33.8 °F 32% 30.11 in 10.0 mi South 11.5 mph 19.6 mph N/A   Clear
3:35 PM 64.4 °F - 33.8 °F 32% 30.10 in 10.0 mi South 18.4 mph 23.0 mph N/A   Clear
3:55 PM 62.6 °F - 33.8 °F 34% 30.09 in 10.0 mi South 13.8 mph 18.4 mph N/A   Clear
4:35 PM 60.8 °F - 33.8 °F 36% 30.10 in 10.0 mi South 8.1 mph - N/A   Clear
7:15 PM 53.6 °F - 32.0 °F 44% 30.12 in 10.0 mi South 8.1 mph - N/A   Clear
7:35 PM 51.8 °F - 32.0 °F 47% 30.12 in 10.0 mi South 9.2 mph - N/A   Clear
7:55 PM 51.8 °F - 32.0 °F 47% 30.13 in 10.0 mi South 9.2 mph - N/A   Clear
8:15 PM 51.8 °F - 32.0 °F 47% 30.13 in 10.0 mi South 8.1 mph - N/A   Clear
8:35 PM 51.8 °F - 32.0 °F 47% 30.14 in 10.0 mi South 6.9 mph - N/A   Clear
8:55 PM 51.8 °F - 32.0 °F 47% 30.13 in 10.0 mi South 9.2 mph 16.1 mph N/A   Clear
9:15 PM 51.8 °F - 30.2 °F 44% 30.13 in 10.0 mi South 10.4 mph - N/A   Clear
9:35 PM 51.8 °F - 30.2 °F 44% 30.13 in 10.0 mi South 11.5 mph 17.3 mph N/A   Clear
9:55 PM 51.8 °F - 30.2 °F 44% 30.13 in 10.0 mi South 13.8 mph 18.4 mph N/A   Clear
10:15 PM 51.8 °F - 30.2 °F 44% 30.13 in 10.0 mi South 10.4 mph 17.3 mph N/A   Clear
10:35 PM 51.8 °F - 30.2 °F 44% 30.13 in 10.0 mi South 11.5 mph - N/A   Clear
10:55 PM 51.8 °F - 30.2 °F 44% 30.12 in 10.0 mi South 9.2 mph - N/A   Clear
11:15 PM 51.8 °F - 30.2 °F 44% 30.13 in 10.0 mi South 15.0 mph 19.6 mph N/A   Clear
11:35 PM 51.8 °F - 30.2 °F 44% 30.13 in 10.0 mi South 12.7 mph 18.4 mph N/A   Clear
11:55 PM 51.8 °F - 30.2 °F 44% 30.12 in 10.0 mi South 10.4 mph - N/A   Clear